| time (UTC) | temp F | wind direction | speed MPH | gust MPH | rain 1hr in | rain 24hr in | rain mn in | humidity % | barometer mb |
| 20260507213107 | 66 | 0 | 0.0 | 1.0 | 0.00 | 1.26 | 0.39 | 78 | 1013.9 |
| 20260507212557 | 66 | 0 | 0.0 | 1.0 | 0.00 | 1.26 | 0.39 | 78 | 1013.7 |
| 20260507212057 | 66 | 0 | 0.0 | 2.0 | 0.00 | 1.26 | 0.39 | 79 | 1013.7 |
| 20260507211606 | 66 | 0 | 0.0 | 2.0 | 0.00 | 1.26 | 0.39 | 79 | 1013.7 |
| 20260507211057 | 66 | 0 | 0.0 | 2.0 | 0.00 | 1.26 | 0.39 | 76 | 1013.7 |
| 20260507210558 | 66 | 0 | 0.0 | 3.0 | 0.00 | 1.26 | 0.39 | 74 | 1013.6 |
| 20260507210058 | 67 | 306 | 0.0 | 3.0 | 0.00 | 1.26 | 0.39 | 76 | 1013.7 |
| 20260507205557 | 67 | 0 | 0.0 | 4.0 | 0.00 | 1.27 | 0.39 | 75 | 1013.6 |
| 20260507205101 | 67 | 121 | 0.0 | 4.0 | 0.00 | 1.27 | 0.39 | 70 | 1013.6 |
| 20260507204602 | 68 | 0 | 0.0 | 6.0 | 0.00 | 1.27 | 0.39 | 70 | 1013.6 |
| 20260507204057 | 68 | 40 | 0.0 | 6.0 | 0.00 | 1.27 | 0.39 | 67 | 1013.5 |
| 20260507203557 | 68 | 270 | 1.0 | 4.0 | 0.00 | 1.27 | 0.39 | 67 | 1013.4 |
| 20260507203059 | 68 | 0 | 0.0 | 2.0 | 0.00 | 1.27 | 0.39 | 73 | 1013.2 |
| 20260507202556 | 68 | 0 | 0.0 | 2.0 | 0.00 | 1.27 | 0.39 | 74 | 1013.5 |
| 20260507202057 | 68 | 93 | 0.0 | 3.0 | 0.00 | 1.27 | 0.39 | 74 | 1013.6 |
| 20260507201605 | 67 | 270 | 0.0 | 4.0 | 0.00 | 1.27 | 0.39 | 77 | 1013.5 |
| 20260507201058 | 66 | 148 | 0.0 | 4.0 | 0.00 | 1.27 | 0.39 | 71 | 1013.5 |
| 20260507200558 | 66 | 0 | 0.0 | 2.0 | 0.00 | 1.27 | 0.39 | 71 | 1013.5 |
| 20260507200059 | 66 | 0 | 1.0 | 2.0 | 0.00 | 1.27 | 0.39 | 75 | 1013.5 |
| 20260507195559 | 67 | 94 | 1.0 | 3.0 | 0.00 | 1.45 | 0.39 | 74 | 1013.5 |
| 20260507195057 | 66 | 76 | 0.0 | 5.0 | 0.00 | 1.45 | 0.39 | 78 | 1013.6 |
| 20260507194603 | 66 | 0 | 0.0 | 5.0 | 0.00 | 1.45 | 0.39 | 72 | 1013.5 |
| 20260507194101 | 66 | 317 | 1.0 | 5.0 | 0.00 | 1.45 | 0.39 | 70 | 1013.5 |
| 20260507193600 | 66 | 200 | 0.0 | 3.0 | 0.00 | 1.45 | 0.39 | 71 | 1013.7 |
| 20260507193100 | 67 | 79 | 2.0 | 3.0 | 0.00 | 1.45 | 0.39 | 73 | 1013.6 |
| 20260507192557 | 66 | 0 | 0.0 | 4.0 | 0.00 | 1.45 | 0.39 | 74 | 1013.8 |
| 20260507192056 | 66 | 0 | 0.0 | 4.0 | 0.00 | 1.45 | 0.39 | 72 | 1013.8 |
| 20260507191615 | 66 | 0 | 1.0 | 6.0 | 0.00 | 1.45 | 0.39 | 71 | 1013.9 |
| 20260507191056 | 66 | 0 | 1.0 | 6.0 | 0.00 | 1.45 | 0.39 | 69 | 1013.9 |
| 20260507190556 | 66 | 225 | 1.0 | 4.0 | 0.00 | 1.45 | 0.39 | 70 | 1014.0 |
| 20260507190100 | 66 | 106 | 0.0 | 3.0 | 0.00 | 1.45 | 0.39 | 80 | 1013.9 |
| 20260507185557 | 65 | 0 | 1.0 | 6.0 | 0.00 | 1.86 | 0.39 | 77 | 1014.0 |
| 20260507185057 | 65 | 158 | 1.0 | 6.0 | 0.00 | 1.86 | 0.39 | 73 | 1014.0 |
| 20260507184608 | 65 | 271 | 0.0 | 2.0 | 0.00 | 1.86 | 0.39 | 72 | 1013.9 |
| 20260507184058 | 65 | 0 | 0.0 | 3.0 | 0.00 | 1.86 | 0.39 | 78 | 1014.0 |
| 20260507183557 | 65 | 194 | 0.0 | 3.0 | 0.00 | 1.86 | 0.39 | 74 | 1014.2 |
| 20260507183105 | 65 | 292 | 0.0 | 3.0 | 0.00 | 1.86 | 0.39 | 71 | 1014.2 |
| 20260507182600 | 65 | 0 | 0.0 | 6.0 | 0.00 | 1.86 | 0.39 | 68 | 1014.2 |
| 20260507182100 | 66 | 305 | 0.0 | 6.0 | 0.00 | 1.86 | 0.39 | 75 | 1014.2 |
| 20260507181603 | 65 | 130 | 2.0 | 5.0 | 0.00 | 1.86 | 0.39 | 70 | 1014.2 |
| 20260507181057 | 65 | 276 | 1.0 | 4.0 | 0.00 | 1.86 | 0.39 | 71 | 1014.0 |
| 20260507180558 | 65 | 0 | 0.0 | 2.0 | 0.00 | 1.86 | 0.39 | 78 | 1014.0 |
| 20260507175557 | 64 | 0 | 1.0 | 4.0 | 0.00 | 1.86 | 0.39 | 77 | 1014.3 |
| 20260507175100 | 64 | 0 | 1.0 | 5.0 | 0.00 | 1.86 | 0.39 | 82 | 1014.2 |
| 20260507174557 | 63 | 0 | 1.0 | 5.0 | 0.00 | 1.86 | 0.39 | 76 | 1014.3 |
| 20260507174101 | 63 | 296 | 0.0 | 5.0 | 0.00 | 1.86 | 0.39 | 74 | 1014.5 |
| 20260507173557 | 63 | 101 | 0.0 | 7.0 | 0.00 | 1.86 | 0.39 | 76 | 1014.6 |
| 20260507173109 | 63 | 153 | 1.0 | 7.0 | 0.00 | 1.86 | 0.39 | 81 | 1014.6 |
| 20260507172557 | 63 | 159 | 1.0 | 4.0 | 0.00 | 1.86 | 0.39 | 77 | 1014.6 |
| 20260507172058 | 63 | 0 | 1.0 | 5.0 | 0.00 | 1.86 | 0.39 | 84 | 1014.7 |
| 20260507171604 | 63 | 103 | 1.0 | 5.0 | 0.00 | 1.86 | 0.39 | 82 | 1014.6 |
| 20260507171058 | 63 | 0 | 1.0 | 4.0 | 0.00 | 1.86 | 0.39 | 78 | 1014.6 |
| 20260507170557 | 62 | 130 | 1.0 | 4.0 | 0.00 | 1.86 | 0.39 | 87 | 1014.5 |
| 20260507165557 | 61 | 299 | 0.0 | 4.0 | 0.00 | 1.86 | 0.39 | 82 | 1014.7 |
| 20260507165057 | 61 | 24 | 0.0 | 4.0 | 0.00 | 1.86 | 0.39 | 85 | 1014.6 |
| 20260507164624 | 61 | 331 | 1.0 | 4.0 | 0.00 | 1.86 | 0.39 | 83 | 1014.5 |
| 20260507164057 | 60 | 0 | 0.0 | 4.0 | 0.00 | 1.86 | 0.39 | 87 | 1014.6 |
| 20260507163557 | 60 | 0 | 0.0 | 4.0 | 0.00 | 1.86 | 0.39 | 86 | 1014.5 |
| 20260507163100 | 59 | 223 | 1.0 | 4.0 | 0.00 | 1.86 | 0.39 | 86 | 1014.5 |
| 20260507162557 | 59 | 0 | 0.0 | 3.0 | 0.00 | 1.86 | 0.39 | 86 | 1014.5 |
| 20260507162057 | 59 | 0 | 0.0 | 2.0 | 0.00 | 1.86 | 0.39 | 92 | 1014.4 |
| 20260507161607 | 58 | 0 | 0.0 | 2.0 | 0.00 | 1.86 | 0.39 | 88 | 1014.6 |
| 20260507161057 | 58 | 146 | 0.0 | 3.0 | 0.00 | 1.86 | 0.39 | 89 | 1014.7 |
| 20260507160557 | 58 | 247 | 0.0 | 3.0 | 0.00 | 1.86 | 0.39 | 88 | 1014.7 |
| 20260507160058 | 57 | 0 | 0.0 | 3.0 | 0.00 | 1.86 | 0.39 | 93 | 1014.7 |
| 20260507155556 | 57 | 167 | 0.0 | 2.0 | 0.00 | 1.86 | 0.39 | 92 | 1014.7 |
| 20260507155056 | 57 | 0 | 0.0 | 2.0 | 0.00 | 1.86 | 0.39 | 89 | 1014.8 |
| 20260507154604 | 56 | 0 | 0.0 | 2.0 | 0.00 | 1.86 | 0.39 | 92 | 1015.0 |
| 20260507154058 | 56 | 0 | 0.0 | 3.0 | 0.00 | 1.86 | 0.39 | 91 | 1014.8 |
| 20260507153557 | 56 | 0 | 0.0 | 3.0 | 0.00 | 1.86 | 0.39 | 91 | 1014.8 |
| 20260507153059 | 56 | 0 | 1.0 | 4.0 | 0.00 | 1.86 | 0.39 | 92 | 1014.9 |
| 20260507152600 | 56 | 0 | 1.0 | 4.0 | 0.00 | 1.86 | 0.39 | 92 | 1014.7 |
| 20260507152100 | 56 | 0 | 1.0 | 9.0 | 0.00 | 1.86 | 0.39 | 92 | 1014.5 |
| 20260507151601 | 56 | 236 | 0.0 | 9.0 | 0.00 | 1.86 | 0.39 | 92 | 1014.3 |
| 20260507151057 | 57 | 135 | 0.0 | 5.0 | 0.00 | 1.86 | 0.39 | 94 | 1014.2 |
| 20260507150557 | 56 | 328 | 0.0 | 7.0 | 0.00 | 1.86 | 0.39 | 93 | 1014.1 |
| 20260507150057 | 56 | 0 | 0.0 | 7.0 | 0.00 | 1.86 | 0.39 | 92 | 1014.1 |
| 20260507145615 | 56 | 133 | 2.0 | 6.0 | 0.00 | 2.44 | 0.39 | 92 | 1014.2 |
| 20260507145056 | 56 | 0 | 1.0 | 6.0 | 0.00 | 2.44 | 0.39 | 93 | 1014.2 |
| 20260507144603 | 56 | 0 | 0.0 | 5.0 | 0.00 | 2.44 | 0.39 | 96 | 1014.3 |
| 20260507144057 | 56 | 161 | 1.0 | 5.0 | 0.00 | 2.44 | 0.39 | 94 | 1014.1 |
| 20260507143557 | 56 | 134 | 0.0 | 4.0 | 0.00 | 2.44 | 0.39 | 95 | 1014.2 |
| 20260507143109 | 56 | 170 | 0.0 | 4.0 | 0.00 | 2.44 | 0.39 | 95 | 1014.3 |
| 20260507142557 | 56 | 157 | 0.0 | 4.0 | 0.00 | 2.44 | 0.39 | 95 | 1014.1 |
| 20260507142057 | 56 | 248 | 0.0 | 5.0 | 0.00 | 2.44 | 0.39 | 95 | 1013.9 |
| 20260507141624 | 56 | 101 | 0.0 | 5.0 | 0.00 | 2.44 | 0.39 | 97 | 1013.9 |
| 20260507141100 | 56 | 0 | 0.0 | 2.0 | 0.00 | 2.44 | 0.39 | 97 | 1014.0 |
| 20260507140559 | 56 | 0 | 0.0 | 4.0 | 0.00 | 2.44 | 0.39 | 97 | 1013.9 |
| 20260507140100 | 56 | 0 | 0.0 | 4.0 | 0.00 | 2.44 | 0.39 | 98 | 1014.0 |
| 20260507135557 | 55 | 163 | 0.0 | 2.0 | 0.00 | 2.50 | 0.39 | 98 | 1014.0 |
| 20260507135057 | 55 | 0 | 0.0 | 2.0 | 0.00 | 2.50 | 0.39 | 97 | 1014.0 |
| 20260507134608 | 55 | 0 | 0.0 | 2.0 | 0.00 | 2.50 | 0.39 | 97 | 1013.9 |
| 20260507134056 | 55 | 0 | 0.0 | 2.0 | 0.00 | 2.50 | 0.39 | 97 | 1014.0 |
| 20260507133557 | 55 | 77 | 0.0 | 2.0 | 0.00 | 2.50 | 0.39 | 97 | 1014.0 |
| 20260507133110 | 56 | 0 | 0.0 | 3.0 | 0.00 | 2.50 | 0.39 | 98 | 1013.9 |
| 20260507132556 | 55 | 0 | 0.0 | 4.0 | 0.00 | 2.50 | 0.39 | 97 | 1013.8 |
| 20260507132103 | 55 | 237 | 0.0 | 4.0 | 0.00 | 2.50 | 0.39 | 97 | 1013.9 |
| 20260507131613 | 55 | 94 | 0.0 | 4.0 | 0.00 | 2.50 | 0.39 | 97 | 1013.8 |
| 20260507131057 | 55 | 104 | 0.0 | 3.0 | 0.00 | 2.50 | 0.39 | 98 | 1013.3 |
| 20260507130556 | 55 | 0 | 0.0 | 3.0 | 0.00 | 2.50 | 0.39 | 97 | 1013.5 |
| 20260507130100 | 55 | 113 | 0.0 | 4.0 | 0.00 | 2.50 | 0.39 | 97 | 1013.6 |
| 20260507125600 | 55 | 0 | 0.0 | 4.0 | 0.00 | 2.50 | 0.39 | 98 | 1013.5 |
| 20260507125058 | 56 | 0 | 0.0 | 4.0 | 0.00 | 2.50 | 0.39 | 98 | 1013.3 |
| 20260507124559 | 56 | 0 | 0.0 | 4.0 | 0.00 | 2.50 | 0.39 | 98 | 1013.2 |
| 20260507124058 | 56 | 0 | 0.0 | 6.0 | 0.00 | 2.50 | 0.39 | 98 | 1013.1 |
| 20260507123558 | 56 | 115 | 0.0 | 6.0 | 0.00 | 2.50 | 0.39 | 98 | 1013.3 |
| 20260507123112 | 56 | 225 | 0.0 | 3.0 | 0.00 | 2.50 | 0.39 | 98 | 1013.1 |
| 20260507122559 | 56 | 115 | 0.0 | 3.0 | 0.00 | 2.50 | 0.39 | 98 | 1012.8 |
| 20260507122059 | 56 | 0 | 0.0 | 3.0 | 0.00 | 2.50 | 0.39 | 98 | 1013.0 |
| 20260507121557 | 56 | 0 | 0.0 | 3.0 | 0.00 | 2.50 | 0.39 | 98 | 1013.0 |
| 20260507121058 | 56 | 0 | 0.0 | 3.0 | 0.00 | 2.50 | 0.39 | 98 | 1013.1 |
| 20260507120556 | 56 | 0 | 0.0 | 0.0 | 0.00 | 2.50 | 0.39 | 98 | 1013.2 |
| 20260507120058 | 56 | 0 | 0.0 | 0.0 | 0.00 | 2.50 | 0.39 | 99 | 1013.1 |
| 20260507115601 | 57 | 0 | 0.0 | 0.0 | 0.00 | 2.50 | 0.39 | 99 | 1012.8 |
| 20260507115057 | 57 | 0 | 0.0 | 0.0 | 0.03 | 2.50 | 0.39 | 99 | 1012.7 |
| 20260507114559 | 56 | 0 | 0.0 | 1.0 | 0.04 | 2.50 | 0.39 | 98 | 1013.1 |
| 20260507114056 | 56 | 0 | 0.0 | 1.0 | 0.04 | 2.50 | 0.39 | 98 | 1013.3 |
| 20260507113557 | 56 | 0 | 0.0 | 3.0 | 0.03 | 2.49 | 0.38 | 98 | 1013.2 |
| 20260507113057 | 56 | 0 | 0.0 | 3.0 | 0.03 | 2.49 | 0.38 | 98 | 1013.0 |
| 20260507112556 | 56 | 0 | 1.0 | 3.0 | 0.03 | 2.49 | 0.38 | 98 | 1012.8 |
| 20260507112058 | 57 | 0 | 0.0 | 2.0 | 0.04 | 2.49 | 0.38 | 98 | 1012.6 |
| 20260507111601 | 57 | 0 | 0.0 | 2.0 | 0.04 | 2.49 | 0.38 | 98 | 1012.2 |
| 20260507111056 | 57 | 0 | 0.0 | 3.0 | 0.05 | 2.49 | 0.38 | 98 | 1012.3 |
| 20260507110557 | 57 | 0 | 0.0 | 3.0 | 0.06 | 2.49 | 0.38 | 98 | 1012.1 |
| 20260507110057 | 57 | 242 | 0.0 | 1.0 | 0.06 | 2.49 | 0.38 | 98 | 1012.4 |
| 20260507105556 | 57 | 0 | 0.0 | 2.0 | 0.06 | 2.49 | 0.38 | 98 | 1012.0 |
| 20260507105057 | 57 | 0 | 0.0 | 2.0 | 0.04 | 2.47 | 0.36 | 98 | 1011.4 |
| 20260507104600 | 57 | 0 | 0.0 | 2.0 | 0.03 | 2.46 | 0.35 | 98 | 1012.4 |
| 20260507104101 | 58 | 246 | 0.0 | 3.0 | 0.04 | 2.46 | 0.35 | 98 | 1012.3 |
| 20260507103600 | 58 | 0 | 0.0 | 3.0 | 0.06 | 2.46 | 0.35 | 98 | 1011.9 |
| 20260507103056 | 58 | 0 | 0.0 | 5.0 | 0.08 | 2.46 | 0.35 | 98 | 1011.7 |
| 20260507102559 | 58 | 285 | 0.0 | 5.0 | 0.09 | 2.46 | 0.35 | 99 | 1011.7 |
| 20260507102100 | 58 | 0 | 0.0 | 5.0 | 0.11 | 2.45 | 0.34 | 99 | 1011.6 |
| 20260507101557 | 58 | 0 | 0.0 | 4.0 | 0.14 | 2.45 | 0.34 | 99 | 1011.6 |
| 20260507101100 | 58 | 0 | 0.0 | 3.0 | 0.15 | 2.44 | 0.33 | 99 | 1011.9 |
| 20260507100557 | 58 | 0 | 0.0 | 3.0 | 0.14 | 2.43 | 0.32 | 99 | 1012.0 |
| 20260507100100 | 58 | 0 | 0.0 | 0.0 | 0.14 | 2.43 | 0.32 | 99 | 1011.9 |
| 20260507095556 | 58 | 0 | 0.0 | 0.0 | 0.14 | 2.43 | 0.32 | 99 | 1011.8 |
| 20260507095056 | 59 | 0 | 0.0 | 1.0 | 0.15 | 2.43 | 0.32 | 99 | 1011.9 |
| 20260507094558 | 59 | 0 | 0.0 | 2.0 | 0.15 | 2.43 | 0.32 | 98 | 1012.1 |
| 20260507094103 | 59 | 0 | 0.0 | 2.0 | 0.15 | 2.42 | 0.31 | 98 | 1012.0 |
| 20260507093556 | 59 | 0 | 0.0 | 2.0 | 0.18 | 2.40 | 0.29 | 98 | 1011.8 |
| 20260507093057 | 59 | 0 | 0.0 | 4.0 | 0.16 | 2.38 | 0.27 | 98 | 1012.4 |
| 20260507092557 | 59 | 0 | 0.0 | 4.0 | 0.15 | 2.36 | 0.26 | 98 | 1012.3 |
| 20260507092056 | 59 | 190 | 0.0 | 3.0 | 0.12 | 2.33 | 0.23 | 98 | 1012.6 |
| 20260507091556 | 59 | 0 | 0.0 | 3.0 | 0.09 | 2.31 | 0.20 | 99 | 1012.6 |
| 20260507091059 | 59 | 0 | 1.0 | 3.0 | 0.07 | 2.29 | 0.18 | 98 | 1012.2 |
| 20260507090556 | 59 | 171 | 0.0 | 1.0 | 0.07 | 2.29 | 0.18 | 98 | 1012.1 |
| 20260507090105 | 59 | 0 | 0.0 | 3.0 | 0.07 | 2.29 | 0.18 | 98 | 1011.5 |
| 20260507085556 | 60 | 0 | 0.0 | 3.0 | 0.07 | 2.29 | 0.18 | 98 | 1011.2 |
| 20260507085057 | 60 | 271 | 0.0 | 4.0 | 0.06 | 2.28 | 0.17 | 98 | 1011.3 |
| 20260507084558 | 61 | 86 | 0.0 | 4.0 | 0.06 | 2.28 | 0.17 | 99 | 1011.3 |
| 20260507084057 | 61 | 0 | 0.0 | 3.0 | 0.05 | 2.27 | 0.16 | 99 | 1011.5 |
| 20260507083558 | 61 | 114 | 0.0 | 3.0 | 0.00 | 2.22 | 0.11 | 99 | 1012.7 |
| 20260507083057 | 61 | 0 | 0.0 | 0.0 | 0.00 | 2.22 | 0.11 | 99 | 1012.5 |
| 20260507082556 | 61 | 0 | 0.0 | 0.0 | 0.00 | 2.22 | 0.11 | 99 | 1011.7 |
| 20260507082056 | 61 | 0 | 0.0 | 0.0 | 0.00 | 2.22 | 0.11 | 99 | 1011.6 |
| 20260507081559 | 61 | 0 | 0.0 | 0.0 | 0.00 | 2.22 | 0.11 | 99 | 1011.7 |
| 20260507081059 | 61 | 0 | 0.0 | 0.0 | 0.00 | 2.22 | 0.11 | 99 | 1011.7 |
| 20260507080556 | 61 | 0 | 0.0 | 0.0 | 0.00 | 2.22 | 0.11 | 99 | 1011.7 |
| 20260507080119 | 61 | 0 | 0.0 | 0.0 | 0.00 | 2.22 | 0.11 | 99 | 1011.7 |
| 20260507075559 | 61 | 0 | 0.0 | 0.0 | 0.00 | 2.22 | 0.11 | 99 | 1012.0 |
| 20260507075057 | 61 | 0 | 0.0 | 0.0 | 0.00 | 2.22 | 0.11 | 99 | 1012.0 |
| 20260507074558 | 61 | 0 | 0.0 | 0.0 | 0.00 | 2.22 | 0.11 | 99 | 1011.9 |
| 20260507074057 | 61 | 0 | 0.0 | 0.0 | 0.00 | 2.22 | 0.11 | 99 | 1011.8 |
| 20260507073600 | 61 | 0 | 0.0 | 0.0 | 0.00 | 2.22 | 0.11 | 99 | 1011.9 |
| 20260507073057 | 61 | 0 | 0.0 | 0.0 | 0.00 | 2.22 | 0.11 | 99 | 1011.7 |
| 20260507072559 | 61 | 0 | 0.0 | 0.0 | 0.00 | 2.22 | 0.11 | 99 | 1011.7 |
| 20260507072057 | 61 | 0 | 0.0 | 0.0 | 0.00 | 2.22 | 0.11 | 99 | 1011.6 |
| 20260507071559 | 61 | 0 | 0.0 | 0.0 | 0.00 | 2.22 | 0.11 | 99 | 1011.2 |
| 20260507071057 | 61 | 0 | 0.0 | 0.0 | 0.00 | 2.22 | 0.11 | 99 | 1011.4 |
| 20260507070557 | 61 | 0 | 0.0 | 0.0 | 0.00 | 2.22 | 0.11 | 99 | 1011.7 |
| 20260507070105 | 61 | 0 | 0.0 | 0.0 | 0.00 | 2.22 | 0.11 | 99 | 1011.9 |
| 20260507065559 | 61 | 0 | 0.0 | 0.0 | 0.00 | 2.22 | 0.11 | 99 | 1012.0 |
| 20260507065056 | 61 | 0 | 0.0 | 0.0 | 0.00 | 2.22 | 0.11 | 99 | 1012.2 |
| 20260507064631 | 61 | 0 | 0.0 | 0.0 | 0.00 | 2.22 | 0.11 | 99 | 1012.3 |
| 20260507064059 | 61 | 0 | 0.0 | 0.0 | 0.00 | 2.22 | 0.11 | 99 | 1012.2 |
| 20260507063558 | 61 | 0 | 0.0 | 0.0 | 0.00 | 2.22 | 0.11 | 99 | 1012.1 |
| 20260507063114 | 61 | 0 | 0.0 | 0.0 | 0.00 | 2.22 | 0.11 | 99 | 1012.2 |
| 20260507062556 | 62 | 0 | 0.0 | 0.0 | 0.00 | 2.22 | 0.11 | 99 | 1012.1 |
| 20260507062056 | 62 | 0 | 0.0 | 0.0 | 0.00 | 2.22 | 0.11 | 99 | 1012.2 |
| 20260507061559 | 62 | 0 | 0.0 | 0.0 | 0.00 | 2.22 | 0.11 | 99 | 1012.3 |
| 20260507061056 | 62 | 0 | 0.0 | 0.0 | 0.00 | 2.22 | 0.11 | 99 | 1012.5 |
| 20260507060556 | 62 | 0 | 0.0 | 0.0 | 0.00 | 2.22 | 0.11 | 99 | 1012.5 |
| 20260507060112 | 62 | 0 | 0.0 | 0.0 | 0.00 | 2.22 | 0.11 | 99 | 1012.5 |
| 20260507055556 | 62 | 0 | 0.0 | 1.0 | 0.00 | 2.22 | 0.11 | 99 | 1012.9 |
| 20260507055055 | 62 | 0 | 0.0 | 1.0 | 0.01 | 2.22 | 0.11 | 99 | 1012.7 |
| 20260507054607 | 62 | 0 | 0.0 | 2.0 | 0.01 | 2.22 | 0.11 | 99 | 1012.7 |
| 20260507054058 | 62 | 0 | 0.0 | 4.0 | 0.01 | 2.22 | 0.11 | 98 | 1012.7 |
| 20260507053557 | 62 | 0 | 0.0 | 4.0 | 0.03 | 2.22 | 0.11 | 99 | 1012.1 |
| 20260507053109 | 62 | 279 | 1.0 | 4.0 | 0.07 | 2.22 | 0.11 | 99 | 1011.8 |
| 20260507052556 | 62 | 269 | 0.0 | 2.0 | 0.08 | 2.22 | 0.11 | 99 | 1011.9 |
| 20260507052057 | 63 | 0 | 0.0 | 1.0 | 0.09 | 2.22 | 0.11 | 99 | 1012.3 |
| 20260507051607 | 63 | 0 | 0.0 | 0.0 | 0.10 | 2.22 | 0.11 | 99 | 1012.1 |
| 20260507051056 | 63 | 0 | 0.0 | 0.0 | 0.11 | 2.22 | 0.11 | 99 | 1012.0 |
| 20260507050557 | 63 | 0 | 0.0 | 0.0 | 0.11 | 2.22 | 0.11 | 99 | 1011.9 |
| 20260507050057 | 63 | 0 | 0.0 | 0.0 | 0.11 | 2.22 | 0.11 | 99 | 1012.0 |
| 20260507045556 | 63 | 0 | 0.0 | 0.0 | 0.11 | 2.22 | 0.11 | 99 | 1012.1 |
| 20260507045056 | 63 | 0 | 0.0 | 0.0 | 0.10 | 2.21 | 0.10 | 99 | 1012.4 |
| 20260507044601 | 63 | 0 | 0.0 | 0.0 | 0.10 | 2.21 | 0.10 | 99 | 1012.6 |
| 20260507044056 | 63 | 0 | 0.0 | 0.0 | 0.11 | 2.21 | 0.10 | 99 | 1013.0 |
| 20260507043556 | 63 | 0 | 0.0 | 0.0 | 0.08 | 2.18 | 0.07 | 99 | 1013.1 |
| 20260507043059 | 63 | 0 | 0.0 | 0.0 | 0.07 | 2.15 | 0.04 | 99 | 1013.1 |
| 20260507042559 | 63 | 0 | 0.0 | 0.0 | 0.07 | 2.14 | 0.03 | 99 | 1013.3 |
| 20260507042056 | 63 | 0 | 0.0 | 0.0 | 0.06 | 2.13 | 0.02 | 99 | 1012.9 |
| 20260507041559 | 63 | 0 | 0.0 | 0.0 | 0.05 | 2.11 | 0.01 | 99 | 1013.3 |
| 20260507041057 | 63 | 0 | 0.0 | 0.0 | 0.05 | 2.10 | 0.00 | 99 | 1013.0 |
| 20260507040558 | 63 | 0 | 0.0 | 0.0 | 0.05 | 2.10 | 0.00 | 99 | 1012.7 |
| 20260507035556 | 63 | 0 | 0.0 | 0.0 | 0.09 | 2.10 | 2.10 | 99 | 1012.8 |
| 20260507035058 | 63 | 0 | 0.0 | 0.0 | 0.12 | 2.10 | 2.10 | 99 | 1013.1 |
| 20260507034558 | 63 | 0 | 0.0 | 0.0 | 0.12 | 2.10 | 2.10 | 99 | 1013.4 |
| 20260507034056 | 63 | 0 | 0.0 | 2.0 | 0.11 | 2.09 | 2.09 | 99 | 1013.1 |
| 20260507033556 | 63 | 0 | 0.0 | 2.0 | 0.12 | 2.09 | 2.09 | 99 | 1013.0 |
| 20260507033101 | 63 | 0 | 0.0 | 2.0 | 0.10 | 2.08 | 2.08 | 99 | 1013.4 |
| 20260507032558 | 63 | 0 | 0.0 | 0.0 | 0.09 | 2.07 | 2.07 | 99 | 1013.2 |
| 20260507032056 | 63 | 0 | 0.0 | 0.0 | 0.09 | 2.07 | 2.07 | 99 | 1012.8 |
| 20260507031557 | 63 | 0 | 0.0 | 2.0 | 0.09 | 2.07 | 2.07 | 99 | 1012.9 |
| 20260507031057 | 63 | 0 | 0.0 | 2.0 | 0.08 | 2.06 | 2.06 | 99 | 1013.2 |
| 20260507030556 | 63 | 0 | 0.0 | 0.0 | 0.08 | 2.06 | 2.06 | 99 | 1013.1 |
| 20260507030058 | 63 | 0 | 0.0 | 0.0 | 0.06 | 2.04 | 2.04 | 99 | 1013.6 |
| 20260507025555 | 64 | 0 | 0.0 | 0.0 | 0.04 | 2.02 | 2.02 | 99 | 1013.7 |
| 20260507025057 | 64 | 0 | 0.0 | 0.0 | 0.01 | 1.99 | 1.99 | 99 | 1014.0 |
| 20260507024603 | 63 | 0 | 0.0 | 0.0 | 0.01 | 1.99 | 1.99 | 99 | 1013.6 |
| 20260507024057 | 63 | 0 | 0.0 | 0.0 | 0.01 | 1.99 | 1.99 | 99 | 1013.4 |
| 20260507023556 | 63 | 0 | 0.0 | 0.0 | 0.00 | 1.98 | 1.98 | 99 | 1013.2 |
| 20260507023057 | 63 | 0 | 0.0 | 0.0 | 0.00 | 1.98 | 1.98 | 99 | 1013.0 |
| 20260507022557 | 63 | 0 | 0.0 | 0.0 | 0.00 | 1.98 | 1.98 | 99 | 1013.0 |
| 20260507022057 | 64 | 0 | 0.0 | 0.0 | 0.00 | 1.98 | 1.98 | 99 | 1013.1 |
| 20260507021557 | 64 | 0 | 0.0 | 0.0 | 0.00 | 1.98 | 1.98 | 99 | 1013.0 |
| 20260507021055 | 64 | 0 | 0.0 | 1.0 | 0.00 | 1.98 | 1.98 | 99 | 1013.2 |
| 20260507020557 | 64 | 0 | 0.0 | 1.0 | 0.00 | 1.98 | 1.98 | 99 | 1013.3 |
| 20260507020115 | 64 | 0 | 0.0 | 0.0 | 0.00 | 1.98 | 1.98 | 99 | 1013.2 |
| 20260507015556 | 64 | 0 | 0.0 | 0.0 | 0.00 | 1.98 | 1.98 | 99 | 1013.3 |
| 20260507015056 | 64 | 0 | 0.0 | 0.0 | 0.00 | 1.98 | 1.98 | 98 | 1013.1 |
| 20260507014602 | 64 | 0 | 0.0 | 0.0 | 0.00 | 1.98 | 1.98 | 99 | 1013.3 |
| 20260507014057 | 64 | 0 | 0.0 | 0.0 | 0.00 | 1.98 | 1.98 | 98 | 1013.5 |
| 20260507013557 | 64 | 0 | 0.0 | 0.0 | 0.00 | 1.98 | 1.98 | 98 | 1013.5 |
| 20260507013059 | 64 | 0 | 0.0 | 0.0 | 0.00 | 1.98 | 1.98 | 98 | 1013.5 |
| 20260507012559 | 64 | 0 | 0.0 | 0.0 | 0.00 | 1.98 | 1.98 | 98 | 1013.5 |
| 20260507012057 | 64 | 0 | 0.0 | 0.0 | 0.00 | 1.98 | 1.98 | 98 | 1013.6 |
| 20260507011556 | 64 | 0 | 0.0 | 0.0 | 0.00 | 1.98 | 1.98 | 99 | 1013.3 |
| 20260507011056 | 64 | 0 | 0.0 | 0.0 | 0.00 | 1.98 | 1.98 | 99 | 1013.2 |
| 20260507010558 | 64 | 0 | 0.0 | 0.0 | 0.01 | 1.98 | 1.98 | 99 | 1013.0 |
| 20260507010111 | 64 | 0 | 0.0 | 0.0 | 0.02 | 1.98 | 1.98 | 99 | 1012.7 |
| 20260507005557 | 64 | 0 | 0.0 | 0.0 | 0.02 | 1.98 | 1.98 | 99 | 1013.0 |
| 20260507005057 | 64 | 0 | 0.0 | 0.0 | 0.02 | 1.98 | 1.98 | 99 | 1013.0 |
| 20260507004558 | 64 | 0 | 0.0 | 0.0 | 0.02 | 1.98 | 1.98 | 98 | 1013.1 |
| 20260507004057 | 64 | 0 | 0.0 | 0.0 | 0.04 | 1.98 | 1.98 | 98 | 1013.1 |
| 20260507003557 | 64 | 0 | 0.0 | 0.0 | 0.06 | 1.98 | 1.98 | 98 | 1012.9 |
| 20260507003059 | 64 | 0 | 0.0 | 0.0 | 0.10 | 1.98 | 1.98 | 98 | 1012.8 |
| 20260507002556 | 64 | 0 | 0.0 | 0.0 | 0.18 | 1.98 | 1.98 | 98 | 1013.1 |
| 20260507002057 | 64 | 0 | 0.0 | 1.0 | 0.23 | 1.98 | 1.98 | 98 | 1012.9 |
| 20260507001605 | 64 | 0 | 0.0 | 1.0 | 0.29 | 1.98 | 1.98 | 98 | 1012.8 |
| 20260507001056 | 64 | 0 | 0.0 | 0.0 | 0.38 | 1.98 | 1.98 | 98 | 1012.6 |
| 20260507000559 | 64 | 0 | 0.0 | 1.0 | 0.43 | 1.97 | 1.97 | 98 | 1013.8 |
| 20260507000057 | 64 | 0 | 0.0 | 1.0 | 0.44 | 1.96 | 1.96 | 98 | 1014.0 |
| 20260506235557 | 64 | 0 | 0.0 | 1.0 | 0.54 | 1.96 | 1.96 | 98 | 1013.8 |
| 20260506235103 | 64 | 0 | 0.0 | 0.0 | 0.62 | 1.96 | 1.96 | 98 | 1013.3 |
| 20260506234600 | 64 | 0 | 0.0 | 0.0 | 0.62 | 1.96 | 1.96 | 98 | 1013.6 |
| 20260506234057 | 64 | 0 | 0.0 | 0.0 | 0.61 | 1.94 | 1.94 | 98 | 1013.3 |
| 20260506233557 | 64 | 0 | 0.0 | 0.0 | 0.58 | 1.92 | 1.92 | 98 | 1013.1 |
| 20260506233100 | 64 | 0 | 0.0 | 0.0 | 0.55 | 1.88 | 1.88 | 98 | 1013.4 |
| 20260506232600 | 64 | 0 | 0.0 | 0.0 | 0.48 | 1.80 | 1.80 | 98 | 1013.4 |
| 20260506232057 | 64 | 0 | 0.0 | 0.0 | 0.46 | 1.74 | 1.74 | 98 | 1013.6 |
| 20260506231612 | 64 | 0 | 0.0 | 1.0 | 0.42 | 1.69 | 1.69 | 98 | 1013.6 |
| 20260506231056 | 64 | 0 | 0.0 | 1.0 | 0.34 | 1.60 | 1.60 | 98 | 1013.5 |
| 20260506230556 | 65 | 0 | 0.0 | 1.0 | 0.28 | 1.54 | 1.54 | 98 | 1013.4 |
| 20260506230116 | 65 | 0 | 0.0 | 1.0 | 0.27 | 1.52 | 1.52 | 98 | 1012.9 |
| 20260506225556 | 65 | 0 | 0.0 | 0.0 | 0.17 | 1.42 | 1.42 | 98 | 1013.1 |
| 20260506225056 | 65 | 0 | 0.0 | 0.0 | 0.09 | 1.34 | 1.34 | 98 | 1013.2 |
| 20260506224557 | 65 | 0 | 0.0 | 0.0 | 0.09 | 1.34 | 1.34 | 98 | 1012.7 |
| 20260506224056 | 65 | 0 | 0.0 | 0.0 | 0.08 | 1.33 | 1.33 | 98 | 1012.8 |
| 20260506223556 | 65 | 0 | 0.0 | 0.0 | 0.08 | 1.33 | 1.33 | 98 | 1012.8 |
| 20260506223059 | 65 | 0 | 0.0 | 0.0 | 0.09 | 1.33 | 1.33 | 98 | 1012.7 |
| 20260506222558 | 65 | 0 | 0.0 | 1.0 | 0.08 | 1.32 | 1.32 | 98 | 1012.7 |
| 20260506222058 | 65 | 0 | 0.0 | 1.0 | 0.04 | 1.28 | 1.28 | 98 | 1013.1 |
| 20260506221624 | 65 | 0 | 0.0 | 2.0 | 0.03 | 1.27 | 1.27 | 98 | 1012.7 |
| 20260506221057 | 65 | 343 | 0.0 | 2.0 | 0.02 | 1.26 | 1.26 | 97 | 1012.5 |
| 20260506220559 | 65 | 0 | 0.0 | 2.0 | 0.02 | 1.26 | 1.26 | 97 | 1012.4 |
| 20260506220132 | 65 | 205 | 0.0 | 0.0 | 0.01 | 1.25 | 1.25 | 97 | 1012.3 |
| 20260506215558 | 65 | 0 | 0.0 | 1.0 | 0.01 | 1.25 | 1.25 | 97 | 1012.5 |
| 20260506215058 | 65 | 0 | 0.0 | 1.0 | 0.01 | 1.25 | 1.25 | 98 | 1012.2 |
| 20260506214558 | 65 | 0 | 0.0 | 1.0 | 0.01 | 1.25 | 1.25 | 98 | 1012.3 |
| 20260506214058 | 65 | 0 | 0.0 | 2.0 | 0.01 | 1.25 | 1.25 | 97 | 1012.4 |
| 20260506213557 | 65 | 0 | 0.0 | 2.0 | 0.01 | 1.25 | 1.25 | 97 | 1012.5 |